Regional Weather Roundup
Issued by NWS New Orleans/Baton Rouge, LA

Home | Current Version | Previous Version | Graphics & Text | Print | Product List | Glossary On
Versions: 1 2 3 4 5 6 7 8 9 10 11 12 13 14 15 16 17 18 19 20 21 22 23 24 25 26 27 28 29 30 31 32 33 34 35 36 37 38 39 40 41 42 43 44 45 46 47 48 49 50
033
ASUS44 KLIX 231501
RWRLIX
NEW ORLEANS REGIONAL WEATHER ROUNDUP
NATIONAL WEATHER SERVICE NEW ORLEANS LA
1000 AM CDT WED APR 23 2014

NOTE: "FAIR" INDICATES FEW OR NO CLOUDS BELOW 12,000 FEET WITH NO
      SIGNIFICANT WEATHER AND/OR OBSTRUCTIONS TO VISIBILITY.
      SKY/WX - SKY CONDITION AND SIGNIFICANT WEATHER.
      TMP - AIR TEMPERATURE.     DP    - DEWPOINT TEMPERATURE.
      RH  - RELATIVE HUMIDITY.   PRES  - PRESSURE.
      HI  - HEAT INDEX.          WCI   - WIND CHILL INDEX.

*  THESE STATIONS ARE NOT NWS OR FAA STATIONS AND ARE NOT UNDER
   NWS QUALITY CONTROL.

LAZ038-040-048-061>063-065>067-069-231600-
SOUTHEAST LOUISIANA

CITY           SKY/WX    TMP DP  RH WIND       PRES   REMARKS
N.O. AUDUBON     N/A     79  62  56 MISG        N/A
N.O. INTL ARPT SUNNY     74  63  68 NE7       30.00R
N.O. LAKEFRONT SUNNY     70  62  76 N5        30.00R
N.O. DOWNTOWN*   N/A     73  59  60 N5        30.00S
SLIDELL        SUNNY     74  61  63 NE6       29.98R
BATON ROUGE    SUNNY     76  58  53 NE8       30.00R
BOOTHVILLE     SUNNY     72  65  78 N5        30.00R
BELLE CHASSE   SUNNY     75  62  64 E3        29.99R
BOGALUSA*        N/A     74  60  62 CALM      30.00S
GALLIANO*      NOT AVBL
NEW ROADS*     NOT AVBL
GONZALES*      NOT AVBL
HAMMOND*       NOT AVBL
HOUMA*         SUNNY     75  61  60 NE6       30.00R
PORT FOURCHON* SUNNY     75  64  69 NE5       30.02R

$$

MSZ070-080>082-231600-
SOUTHERN MISSISSIPPI

CITY           SKY/WX    TMP DP  RH WIND       PRES   REMARKS
MCCOMB         SUNNY     73  56  54 VRB3      30.00R
GULFPORT       SUNNY     77  63  61 NE5       29.97S
BILOXI         SUNNY     72  65  77 N2        29.98R
PASCAGOULA     SUNNY     74  64  71 NE5       29.98R
STENNIS ARPT*  SUNNY     68  57  68 E3        29.98S

$$

COASTAL OBSERVATIONS
LAKE AND NEARSHORE STATIONS

STATION/POSITION TIME  TEMP    WIND        PRES    WAVE
                       AIR SEA DIR/SP/G            HT/PER
                 (UTC) (F)     (DEG/KT/KT) (MB)    (FT/S)
PASCAGOULA       1400   72      60/  2/  4   N/A
WAVELAND YACHT   1400   68     360/  3/  4   N/A
GRAND ISLE       1400   72     350/  3/  4   N/A
SOUTHWEST PASS   1400   70     330/  2/  3   N/A
NEW CANAL        1400   68      40/  5/  5   N/A
SHELL BEACH      1400   67      20/  8/  9   N/A

OFFSHORE STATIONS

STATION/POSITION TIME  TEMP    WIND        PRES    WAVE
                       AIR SEA DIR/SP/G            HT/PER
                 (UTC) (F)     (DEG/KT/KT) (MB)    (FT/S)
64 S DAUPHIN ISL 1354   68 69   10/  6/  6 1015.4

$$




USA.gov is the U.S. government's official web portal to all federal, state and local government web resources and services.